Daniel Oduber Quiros International Airport

Jump to: basic info | weather | frequencies | runways | comments

Related pages: nearby airports | nearby navaids | notams | map

Basic information (top)

Codes: LIR MRLB
Location: lon 10.593300, lat -85.544403, elev 270 ft / 82 m msl
Status: medium_airport
Scheduled airline service: yes
Links: Wikipedia Mobile

Weather (top)

Current conditions (rec'd 2014/09/23 02:00Z):

MRLB 230200Z 22002KT 9999 SCT025 BKN100 24/23 A2987

Airport forecast (rec'd 2014/09/22 12:55Z):

TAF COR MRLB 221100Z 2212/2312 23006KT 9999 FEW030 BKN140 TX32/2218Z TN22/2211Z 
      TEMPO 2212/2215 05006KT CAVOK 
      BECMG 2216/2218 10007KT 9999 FEW030TCU BKN120 
      TEMPO 2219/2223 29008KT 5000 TSRA SCT020CB BKN120

Frequencies (top)

Verify before use: may be inaccurate or out of date.

APP: 119.8 MHz (LIBERIA APP)
GND: 121.7 MHz (GND)
RDO: 126.8 MHz (COCO RDO)
TWR: 118.8 MHz (LIBERIA TWR)

Runways (top)

07/25: 9,022 x 148 ft (2,750 x 45 m) — paved — lighted

Latest comments (top)

Great Facility but: Make sure you either speak fluent ... [read]

Terminal building: Nice new facility opened in 2011 [read]

More... (top)

See also NOTAMs and nearby airports and navaids, or visit the Daniel Oduber Quiros International Airport page at the main OurAirports website..